Location: Misciano
(43.5000°N, 11.9500°E)
Time: 21:01:55
(UTC+00:00)

SL-4 R/B - Pass Details

Date: 13 August 2020
Orbit: 428 x 665 km, 51.6° (Epoch: 21 September)

Event Time Altitude Azimuth Distance (km) Brightness Sun altitude
Rises 21:51:18 0° 298° (WNW) 2,591 6.2 -29.0°
Reaches altitude 10° 21:53:49 10° 312° (NW) 1,663 5.2 -29.2°
Enters shadow 21:55:58 22° 343° (NNW) 1,070 4.1 -29.3°
